SVR149 USSS-URKG

Flight info

Callsign SVR149
Flight time N/A
Altitude 36000
Route K0839F360 MIKUS6J MIKUS T374 IMANA DCT ITAKA DCT OBBUD DCT AMKOL DCT GOTIK DCT MEMZA DCT VENFO DCT PROZR DCT BAKRI A277 LIMAS LIMAS5F
Aircraft A320/M-SDE3FGHIRWY/LB1

Departure

Time 2026-05-08 06:59
Airport Koltsovo Airport (USSS)

Arrival

Time N/A
Airport Gelendzhik Airport (URKG)
Time Latitude Longitude Altitude Speed Heading
2026-05-08 06:00 56.74940 60.80409 775 ft 0 kts 360°
2026-05-08 06:48 56.74939 60.80409 774 ft 1 kts 360°
2026-05-08 06:48 56.74924 60.80409 774 ft 3 kts
2026-05-08 06:48 56.74904 60.80410 774 ft 3 kts 355°
2026-05-08 06:48 56.74884 60.80414 774 ft 3 kts 345°
2026-05-08 06:49 56.74865 60.80426 774 ft 3 kts 332°
2026-05-08 06:49 56.74851 60.80441 774 ft 2 kts 319°
2026-05-08 06:49 56.74846 60.80450 774 ft 0 kts 318°
2026-05-08 06:52 56.74850 60.80438 774 ft 4 kts 304°
2026-05-08 06:52 56.74854 60.80362 774 ft 7 kts 269°
2026-05-08 06:52 56.74853 60.80267 774 ft 8 kts 269°
2026-05-08 06:53 56.74848 60.80161 774 ft 9 kts 247°
2026-05-08 06:53 56.74792 60.80130 774 ft 9 kts 178°
2026-05-08 06:53 56.74725 60.80130 774 ft 10 kts 181°
2026-05-08 06:53 56.74663 60.80091 774 ft 10 kts 253°
2026-05-08 06:54 56.74662 60.79956 774 ft 11 kts 270°
2026-05-08 06:54 56.74662 60.79810 774 ft 12 kts 270°
2026-05-08 06:54 56.74662 60.79652 774 ft 13 kts 270°
2026-05-08 06:54 56.74662 60.79478 774 ft 15 kts 270°
2026-05-08 06:55 56.74662 60.79267 774 ft 18 kts 271°
2026-05-08 06:55 56.74662 60.79038 774 ft 19 kts 270°
2026-05-08 06:55 56.74662 60.78795 774 ft 20 kts 270°
2026-05-08 06:55 56.74662 60.78539 774 ft 21 kts 270°
2026-05-08 06:56 56.74662 60.78278 774 ft 14 kts 270°
2026-05-08 06:56 56.74643 60.78153 774 ft 10 kts 211°
2026-05-08 06:56 56.74568 60.78148 774 ft 12 kts 180°
2026-05-08 06:56 56.74468 60.78148 774 ft 16 kts 180°
2026-05-08 06:57 56.74363 60.78078 774 ft 17 kts 205°
2026-05-08 06:57 56.74336 60.78055 774 ft 0 kts 205°
2026-05-08 06:57 56.74334 60.78053 774 ft 1 kts 205°
2026-05-08 06:57 56.74320 60.78042 774 ft 4 kts 205°
2026-05-08 06:58 56.74284 60.78011 774 ft 8 kts 204°
2026-05-08 06:58 56.74230 60.78033 774 ft 10 kts 111°
2026-05-08 06:58 56.74223 60.78164 774 ft 11 kts 94°
2026-05-08 06:58 56.74215 60.78374 774 ft 32 kts 94°
2026-05-08 06:59 56.74181 60.79213 774 ft 98 kts 94°
2026-05-08 06:59 56.74118 60.80793 775 ft 149 kts 94°
2026-05-08 06:59 56.74044 60.82904 971 ft 174 kts 93°
2026-05-08 06:59 56.74001 60.85118 1589 ft 177 kts 90°
2026-05-08 07:00 56.73985 60.87383 2127 ft 181 kts 89°
2026-05-08 07:00 56.73996 60.89705 2557 ft 188 kts 89°
2026-05-08 07:00 56.73997 60.92183 2896 ft 202 kts 90°
2026-05-08 07:00 56.73967 60.94884 3101 ft 226 kts 91°
2026-05-08 07:01 56.73927 60.97892 3416 ft 247 kts 90°
2026-05-08 07:01 56.73853 61.01041 4093 ft 252 kts 100°
2026-05-08 07:01 56.73062 61.03954 4586 ft 267 kts 134°
2026-05-08 07:01 56.71456 61.05603 5218 ft 271 kts 169°
2026-05-08 07:02 56.69590 61.05329 5901 ft 274 kts 202°
2026-05-08 07:02 56.68110 61.03223 6654 ft 274 kts 236°
2026-05-08 07:02 56.67491 60.99966 7306 ft 278 kts 269°
2026-05-08 07:02 56.67824 60.96518 8004 ft 279 kts 288°
2026-05-08 07:03 56.68516 60.93196 8659 ft 283 kts 292°
2026-05-08 07:03 56.69280 60.89877 9334 ft 285 kts 291°
2026-05-08 07:03 56.69981 60.86516 10046 ft 286 kts 289°
2026-05-08 07:03 56.70620 60.82959 10230 ft 307 kts 286°
2026-05-08 07:04 56.71226 60.79091 10364 ft 328 kts 285°
2026-05-08 07:04 56.71810 60.74983 10630 ft 341 kts 284°
2026-05-08 07:04 56.72379 60.70744 11159 ft 346 kts 283°
2026-05-08 07:04 56.72936 60.66461 11737 ft 349 kts 283°
2026-05-08 07:05 56.73495 60.62143 12331 ft 351 kts 283°
2026-05-08 07:05 56.74023 60.57786 12922 ft 354 kts 277°
2026-05-08 07:05 56.73985 60.53307 13443 ft 357 kts 259°
2026-05-08 07:05 56.73161 60.49045 13969 ft 360 kts 240°
2026-05-08 07:06 56.71617 60.45460 14478 ft 363 kts 222°
2026-05-08 07:06 56.69504 60.42933 14977 ft 367 kts 205°
2026-05-08 07:06 56.67166 60.41023 15474 ft 369 kts 204°
2026-05-08 07:06 56.64809 60.39122 15977 ft 372 kts 204°
2026-05-08 07:07 56.62434 60.37209 16466 ft 374 kts 204°
2026-05-08 07:07 56.60046 60.35284 16942 ft 377 kts 204°
2026-05-08 07:07 56.57641 60.33346 17424 ft 380 kts 204°
2026-05-08 07:07 56.55219 60.31395 17899 ft 382 kts 204°
2026-05-08 07:08 56.52782 60.29428 18376 ft 385 kts 204°
2026-05-08 07:08 56.50329 60.27450 18847 ft 388 kts 204°
2026-05-08 07:08 56.47853 60.25457 19318 ft 390 kts 204°
2026-05-08 07:08 56.45361 60.23454 19794 ft 393 kts 204°
2026-05-08 07:09 56.42852 60.21433 20258 ft 396 kts 205°
2026-05-08 07:09 56.40453 60.18961 20693 ft 399 kts 216°
2026-05-08 07:09 56.38316 60.15754 21118 ft 401 kts 224°
2026-05-08 07:09 56.36311 60.12227 21524 ft 404 kts 224°
2026-05-08 07:10 56.34289 60.08683 21919 ft 406 kts 224°
2026-05-08 07:10 56.32252 60.05125 22300 ft 409 kts 224°
2026-05-08 07:10 56.30233 60.01607 22672 ft 411 kts 224°
2026-05-08 07:10 56.28140 59.97964 23029 ft 414 kts 224°
2026-05-08 07:11 56.26065 59.94361 23380 ft 416 kts 224°
2026-05-08 07:11 56.24001 59.90784 23724 ft 419 kts 224°
2026-05-08 07:11 56.21868 59.87098 24076 ft 421 kts 224°
2026-05-08 07:11 56.19782 59.83495 24408 ft 423 kts 224°
2026-05-08 07:12 56.17628 59.79778 24738 ft 425 kts 224°
2026-05-08 07:12 56.15492 59.76101 25062 ft 426 kts 224°
2026-05-08 07:12 56.13346 59.72419 25367 ft 428 kts 224°
2026-05-08 07:12 56.11217 59.68774 25675 ft 429 kts 224°
2026-05-08 07:13 56.08960 59.65264 25971 ft 431 kts 216°
2026-05-08 07:13 56.06381 59.62531 26266 ft 433 kts 204°
2026-05-08 07:13 56.03538 59.60743 26556 ft 435 kts 193°
2026-05-08 07:13 56.00542 59.59986 26837 ft 436 kts 182°
2026-05-08 07:14 55.97512 59.60283 27110 ft 438 kts 171°
2026-05-08 07:14 55.94495 59.61152 27388 ft 440 kts 171°
2026-05-08 07:14 55.91466 59.62015 27693 ft 440 kts 171°
2026-05-08 07:14 55.88444 59.62866 28082 ft 439 kts 171°
2026-05-08 07:15 55.85434 59.63707 28463 ft 437 kts 171°
2026-05-08 07:15 55.82429 59.64544 28830 ft 436 kts 171°
2026-05-08 07:15 55.79436 59.65381 29193 ft 435 kts 171°
2026-05-08 07:15 55.76451 59.66216 29548 ft 434 kts 171°
2026-05-08 07:16 55.73473 59.67047 29892 ft 433 kts 171°
2026-05-08 07:16 55.70502 59.67875 30250 ft 432 kts 171°
2026-05-08 07:16 55.67534 59.68701 30589 ft 431 kts 171°
2026-05-08 07:16 55.64578 59.69523 30920 ft 430 kts 171°
2026-05-08 07:17 55.61620 59.70343 31234 ft 430 kts 171°
2026-05-08 07:17 55.58665 59.71162 31548 ft 429 kts 171°
2026-05-08 07:17 55.55720 59.71977 31862 ft 429 kts 171°
2026-05-08 07:17 55.52771 59.72791 32163 ft 428 kts 171°
2026-05-08 07:18 55.49829 59.73601 32469 ft 428 kts 172°
2026-05-08 07:18 55.46886 59.74410 32779 ft 428 kts 172°
2026-05-08 07:18 55.43939 59.75071 33073 ft 427 kts 178°
2026-05-08 07:18 55.40982 59.74895 33345 ft 425 kts 188°
2026-05-08 07:19 55.38099 59.73790 33599 ft 424 kts 199°
2026-05-08 07:19 55.35376 59.71802 33840 ft 423 kts 209°
2026-05-08 07:19 55.32886 59.69059 34072 ft 423 kts 214°
2026-05-08 07:19 55.30455 59.66159 34292 ft 423 kts 214°
2026-05-08 07:20 55.28015 59.63266 34518 ft 423 kts 214°
2026-05-08 07:20 55.25576 59.60386 34729 ft 423 kts 214°
2026-05-08 07:20 55.23138 59.57513 34931 ft 422 kts 214°
2026-05-08 07:20 55.20699 59.54644 35133 ft 422 kts 214°
2026-05-08 07:21 55.18258 59.51784 35333 ft 422 kts 214°
2026-05-08 07:21 55.15818 59.48926 35526 ft 422 kts 214°
2026-05-08 07:21 55.13380 59.46069 35696 ft 422 kts 214°
2026-05-08 07:21 55.10943 59.43216 35868 ft 422 kts 214°
2026-05-08 07:22 55.06051 59.37507 35934 ft 423 kts 214°
2026-05-08 07:22 55.01150 59.31808 35933 ft 424 kts 214°
2026-05-08 07:23 54.96239 59.26115 35934 ft 424 kts 213°
2026-05-08 07:23 54.91328 59.20442 35934 ft 424 kts 213°
2026-05-08 07:24 54.86408 59.14764 35928 ft 425 kts 213°
2026-05-08 07:24 54.81480 59.09097 35935 ft 425 kts 213°
2026-05-08 07:25 54.76548 59.03447 35937 ft 425 kts 213°
2026-05-08 07:26 54.69141 58.94980 35939 ft 426 kts 213°
2026-05-08 07:26 54.64193 58.89352 35941 ft 426 kts 213°
2026-05-08 07:27 54.59236 58.83724 35944 ft 427 kts 213°
2026-05-08 07:27 54.54273 58.78109 35944 ft 427 kts 213°
2026-05-08 07:28 54.49300 58.72509 35944 ft 427 kts 213°
2026-05-08 07:28 54.44328 58.66920 35944 ft 427 kts 213°
2026-05-08 07:29 54.39352 58.61348 35941 ft 427 kts 213°
2026-05-08 07:29 54.34368 58.55780 35940 ft 428 kts 213°
2026-05-08 07:30 54.30225 58.51153 35942 ft 428 kts 213°
2026-05-08 07:30 54.25223 58.45584 35944 ft 429 kts 213°
2026-05-08 07:31 54.20216 58.40035 35946 ft 429 kts 212°
2026-05-08 07:31 54.15199 58.34497 35947 ft 429 kts 212°
2026-05-08 07:32 54.10177 58.28967 35947 ft 430 kts 212°
2026-05-08 07:32 54.05152 58.23439 35949 ft 430 kts 212°
2026-05-08 07:33 54.00123 58.17928 35951 ft 430 kts 212°
2026-05-08 07:33 53.95090 58.12423 35954 ft 430 kts 212°
2026-05-08 07:34 53.90045 58.06929 35956 ft 431 kts 212°
2026-05-08 07:34 53.84999 58.01440 35957 ft 431 kts 212°
2026-05-08 07:35 53.79947 57.95964 35959 ft 431 kts 212°
2026-05-08 07:35 53.74893 57.90499 35960 ft 431 kts 212°
2026-05-08 07:36 53.69829 57.85053 35960 ft 432 kts 212°
2026-05-08 07:36 53.64757 57.79625 35960 ft 432 kts 212°
2026-05-08 07:37 53.59719 57.74231 35963 ft 432 kts 212°
2026-05-08 07:37 53.54650 57.68807 35960 ft 432 kts 212°
2026-05-08 07:38 53.49570 57.63416 35959 ft 432 kts 212°
2026-05-08 07:38 53.44452 57.57996 35957 ft 432 kts 212°
2026-05-08 07:39 53.39403 57.52635 35957 ft 433 kts 212°
2026-05-08 07:39 53.34271 57.47207 35955 ft 433 kts 212°
2026-05-08 07:40 53.29199 57.41877 35953 ft 434 kts 212°
2026-05-08 07:40 53.24086 57.36524 35952 ft 434 kts 211°
2026-05-08 07:41 53.18975 57.31169 35950 ft 434 kts 211°
2026-05-08 07:41 53.13860 57.25832 35950 ft 434 kts 211°
2026-05-08 07:42 53.08740 57.20512 35947 ft 434 kts 211°
2026-05-08 07:42 53.03611 57.15200 35943 ft 434 kts 211°
2026-05-08 07:43 52.98485 57.09889 35940 ft 434 kts 211°
2026-05-08 07:43 52.93348 57.04596 35935 ft 435 kts 211°
2026-05-08 07:44 52.88212 56.99317 35931 ft 434 kts 211°
2026-05-08 07:44 52.83070 56.94043 35935 ft 435 kts 211°
2026-05-08 07:45 52.77924 56.88778 35937 ft 435 kts 211°
2026-05-08 07:45 52.72769 56.83528 35932 ft 436 kts 211°
2026-05-08 07:46 52.67615 56.78284 35927 ft 435 kts 211°
2026-05-08 07:46 52.62456 56.73039 35926 ft 436 kts 211°
2026-05-08 07:47 52.57291 56.67818 35925 ft 436 kts 211°
2026-05-08 07:47 52.52113 56.62601 35920 ft 437 kts 211°
2026-05-08 07:48 52.46927 56.57380 35917 ft 437 kts 211°
2026-05-08 07:48 52.41738 56.52173 35916 ft 437 kts 211°
2026-05-08 07:49 52.36544 56.46979 35914 ft 437 kts 211°
2026-05-08 07:49 52.31346 56.41808 35908 ft 437 kts 211°
2026-05-08 07:50 52.26146 56.36642 35904 ft 438 kts 211°
2026-05-08 07:50 52.20943 56.31467 35902 ft 438 kts 211°
2026-05-08 07:51 52.15739 56.26315 35901 ft 438 kts 210°
2026-05-08 07:51 52.10529 56.21176 35896 ft 438 kts 210°
2026-05-08 07:52 52.05310 56.16046 35894 ft 438 kts 210°
2026-05-08 07:52 52.00092 56.10927 35894 ft 438 kts 210°
2026-05-08 07:53 51.94860 56.05818 35896 ft 439 kts 210°
2026-05-08 07:53 51.89628 56.00712 35896 ft 439 kts 210°
2026-05-08 07:54 51.84388 55.95613 35894 ft 440 kts 210°
2026-05-08 07:54 51.79144 55.90528 35890 ft 440 kts 210°
2026-05-08 07:55 51.73896 55.85445 35887 ft 440 kts 210°
2026-05-08 07:55 51.68646 55.80377 35887 ft 440 kts 210°
2026-05-08 07:56 51.63389 55.75320 35888 ft 440 kts 210°
2026-05-08 07:56 51.58132 55.70282 35884 ft 439 kts 210°
2026-05-08 07:57 51.52875 55.65260 35884 ft 440 kts 210°
2026-05-08 07:57 51.47616 55.60245 35884 ft 440 kts 210°
2026-05-08 07:58 51.42352 55.55234 35884 ft 440 kts 210°
2026-05-08 07:58 51.37082 55.50235 35881 ft 440 kts 210°
2026-05-08 07:59 51.31809 55.45240 35885 ft 441 kts 210°
2026-05-08 07:59 51.26530 55.40251 35884 ft 441 kts 210°
2026-05-08 08:00 51.21241 55.35276 35885 ft 441 kts 210°
2026-05-08 08:00 51.15983 55.30340 35887 ft 442 kts 210°
2026-05-08 08:01 51.10650 55.25346 35888 ft 442 kts 210°
2026-05-08 08:01 51.05348 55.20390 35890 ft 442 kts 210°
2026-05-08 08:02 51.00076 55.15469 35894 ft 443 kts 210°
2026-05-08 08:02 50.94761 55.10534 35895 ft 443 kts 210°
2026-05-08 08:03 50.89445 55.05614 35893 ft 443 kts 210°
2026-05-08 08:03 50.84125 55.00706 35894 ft 443 kts 210°
2026-05-08 08:04 50.78806 54.95802 35893 ft 443 kts 210°
2026-05-08 08:04 50.73480 54.90909 35896 ft 443 kts 210°
2026-05-08 08:05 50.68150 54.86017 35893 ft 443 kts 210°
2026-05-08 08:05 50.62819 54.81133 35894 ft 443 kts 210°
2026-05-08 08:06 50.57477 54.76257 35894 ft 444 kts 210°
2026-05-08 08:06 50.52132 54.71402 35892 ft 444 kts 209°
2026-05-08 08:07 50.46784 54.66552 35890 ft 444 kts 210°
2026-05-08 08:07 50.41426 54.61706 35890 ft 445 kts 210°
2026-05-08 08:08 50.36063 54.56873 35892 ft 445 kts 209°
2026-05-08 08:08 50.30690 54.52054 35896 ft 445 kts 209°
2026-05-08 08:09 50.25318 54.47234 35896 ft 445 kts 209°
2026-05-08 08:09 50.19943 54.42422 35897 ft 446 kts 209°
2026-05-08 08:10 50.14556 54.37612 35898 ft 446 kts 209°
2026-05-08 08:10 50.09166 54.32815 35897 ft 446 kts 209°
2026-05-08 08:11 50.03768 54.28030 35896 ft 446 kts 209°
2026-05-08 08:11 49.98369 54.23248 35894 ft 447 kts 209°
2026-05-08 08:12 49.92972 54.18460 35897 ft 447 kts 209°
2026-05-08 08:12 49.87564 54.13690 35898 ft 447 kts 209°
2026-05-08 08:13 49.82145 54.08935 35895 ft 448 kts 209°
2026-05-08 08:13 49.76726 54.04193 35896 ft 448 kts 209°
2026-05-08 08:14 49.72219 54.00260 35901 ft 448 kts 209°
2026-05-08 08:14 49.66787 53.95524 35905 ft 449 kts 209°
2026-05-08 08:15 49.61345 53.90789 35912 ft 450 kts 209°
2026-05-08 08:15 49.55898 53.86049 35916 ft 449 kts 209°
2026-05-08 08:16 49.50451 53.81314 35917 ft 450 kts 209°
2026-05-08 08:16 49.44997 53.76605 35917 ft 449 kts 209°
2026-05-08 08:17 49.39542 53.71927 35913 ft 449 kts 209°
2026-05-08 08:17 49.34095 53.67251 35912 ft 449 kts 209°
2026-05-08 08:18 49.28649 53.62577 35912 ft 448 kts 209°
2026-05-08 08:18 49.23202 53.57917 35911 ft 449 kts 209°
2026-05-08 08:19 49.17750 53.53273 35910 ft 448 kts 209°
2026-05-08 08:19 49.12301 53.48640 35914 ft 448 kts 209°
2026-05-08 08:20 49.06854 53.44026 35916 ft 448 kts 209°
2026-05-08 08:20 49.01410 53.39422 35913 ft 448 kts 209°
2026-05-08 08:21 48.95968 53.34818 35911 ft 447 kts 210°
2026-05-08 08:21 48.90519 53.30229 35910 ft 447 kts 209°
2026-05-08 08:22 48.85069 53.25662 35909 ft 447 kts 210°
2026-05-08 08:22 48.79617 53.21099 35909 ft 448 kts 210°
2026-05-08 08:23 48.74164 53.16547 35908 ft 447 kts 209°
2026-05-08 08:23 48.68706 53.12002 35911 ft 448 kts 210°
2026-05-08 08:24 48.63244 53.07459 35915 ft 448 kts 209°
2026-05-08 08:24 48.57807 53.02953 35917 ft 448 kts 209°
2026-05-08 08:25 48.52340 52.98423 35919 ft 448 kts 209°
2026-05-08 08:25 48.46838 52.93883 35923 ft 448 kts 209°
2026-05-08 08:26 48.41360 52.89384 35919 ft 448 kts 209°
2026-05-08 08:26 48.35922 52.84917 35921 ft 449 kts 209°
2026-05-08 08:27 48.30404 52.80392 35925 ft 449 kts 209°
2026-05-08 08:27 48.24949 52.75932 35928 ft 449 kts 210°
2026-05-08 08:28 48.19459 52.71454 35928 ft 449 kts 209°
2026-05-08 08:28 48.13967 52.66996 35928 ft 449 kts 209°
2026-05-08 08:29 48.08474 52.62540 35930 ft 449 kts 209°
2026-05-08 08:29 48.02989 52.58098 35922 ft 448 kts 209°
2026-05-08 08:30 47.97505 52.53667 35917 ft 448 kts 209°
2026-05-08 08:30 47.89276 52.47049 35927 ft 448 kts 209°
2026-05-08 08:31 47.83790 52.42650 35927 ft 448 kts 209°
2026-05-08 08:31 47.78302 52.38257 35929 ft 448 kts 209°
2026-05-08 08:32 47.72807 52.33875 35932 ft 448 kts 209°
2026-05-08 08:32 47.67308 52.29504 35930 ft 448 kts 209°
2026-05-08 08:33 47.61812 52.25136 35931 ft 448 kts 209°
2026-05-08 08:33 47.56311 52.20775 35931 ft 448 kts 209°
2026-05-08 08:34 47.50818 52.16429 35935 ft 448 kts 209°
2026-05-08 08:34 47.45321 52.12099 35938 ft 448 kts 209°
2026-05-08 08:35 47.39830 52.07776 35940 ft 447 kts 209°
2026-05-08 08:35 47.34332 52.03462 35942 ft 447 kts 209°
2026-05-08 08:36 47.28838 51.99157 35943 ft 447 kts 209°
2026-05-08 08:36 47.23344 51.94865 35941 ft 447 kts 209°
2026-05-08 08:37 47.17853 51.90587 35941 ft 447 kts 209°
2026-05-08 08:37 47.12362 51.86318 35940 ft 447 kts 209°
2026-05-08 08:38 47.06873 51.82061 35942 ft 446 kts 209°
2026-05-08 08:38 47.01385 51.77811 35944 ft 445 kts 209°
2026-05-08 08:39 46.95914 51.73582 35942 ft 444 kts 209°
2026-05-08 08:39 46.90444 51.69373 35941 ft 444 kts 209°
2026-05-08 08:40 46.84979 51.65175 35940 ft 444 kts 209°
2026-05-08 08:40 46.79513 51.60984 35941 ft 444 kts 209°
2026-05-08 08:41 46.74055 51.56796 35939 ft 443 kts 209°
2026-05-08 08:41 46.68598 51.52628 35939 ft 442 kts 208°
2026-05-08 08:42 46.63139 51.48477 35940 ft 443 kts 208°
2026-05-08 08:42 46.57680 51.44331 35940 ft 443 kts 208°
2026-05-08 08:43 46.52418 51.40345 35938 ft 441 kts 208°
2026-05-08 08:43 46.46933 51.36198 35940 ft 441 kts 208°
2026-05-08 08:44 46.41485 51.32090 35937 ft 441 kts 208°
2026-05-08 08:44 46.36033 51.27983 35943 ft 441 kts 208°
2026-05-08 08:45 46.30586 51.23885 35950 ft 442 kts 208°
2026-05-08 08:45 46.25127 51.19800 35958 ft 442 kts 208°
2026-05-08 08:46 46.19670 51.15720 35959 ft 442 kts 208°
2026-05-08 08:46 46.14212 51.11649 35958 ft 442 kts 208°
2026-05-08 08:47 46.08754 51.07584 35959 ft 442 kts 208°
2026-05-08 08:47 46.03294 51.03523 35964 ft 442 kts 208°
2026-05-08 08:48 45.97826 50.99471 35968 ft 442 kts 208°
2026-05-08 08:48 45.92365 50.95435 35988 ft 441 kts 208°
2026-05-08 08:49 45.86921 50.91425 35990 ft 440 kts 208°
2026-05-08 08:49 45.81478 50.87419 35986 ft 439 kts 208°
2026-05-08 08:50 45.76042 50.83422 35996 ft 439 kts 208°
2026-05-08 08:50 45.70602 50.79443 35991 ft 439 kts 208°
2026-05-08 08:51 45.65164 50.75471 35992 ft 439 kts 208°
2026-05-08 08:51 45.59718 50.71496 35997 ft 439 kts 208°
2026-05-08 08:52 45.54272 50.67528 36001 ft 440 kts 208°
2026-05-08 08:52 45.48826 50.63568 36007 ft 439 kts 208°
2026-05-08 08:53 45.43370 50.59617 36012 ft 440 kts 208°
2026-05-08 08:53 45.37912 50.55668 36017 ft 440 kts 208°
2026-05-08 08:54 45.32459 50.51723 36023 ft 440 kts 208°
2026-05-08 08:54 45.27007 50.47790 36025 ft 439 kts 208°
2026-05-08 08:55 45.21557 50.43880 36025 ft 439 kts 208°
2026-05-08 08:55 45.16109 50.39975 36028 ft 439 kts 208°
2026-05-08 08:56 45.10663 50.36076 36034 ft 439 kts 208°
2026-05-08 08:56 45.05223 50.32177 36036 ft 438 kts 208°
2026-05-08 08:57 44.99781 50.28294 36038 ft 438 kts 207°
2026-05-08 08:57 44.94342 50.24429 36040 ft 437 kts 207°
2026-05-08 08:58 44.89823 50.21229 36043 ft 437 kts 207°
2026-05-08 08:58 44.84389 50.17384 36051 ft 437 kts 207°
2026-05-08 08:59 44.78954 50.13548 36057 ft 437 kts 207°
2026-05-08 08:59 44.73526 50.09721 36052 ft 436 kts 207°
2026-05-08 09:00 44.68106 50.05901 36055 ft 436 kts 207°
2026-05-08 09:00 44.62685 50.02088 36063 ft 435 kts 207°
2026-05-08 09:01 44.57271 49.98297 36060 ft 435 kts 207°
2026-05-08 09:01 44.51854 49.94510 36056 ft 435 kts 207°
2026-05-08 09:02 44.46436 49.90729 36059 ft 435 kts 207°
2026-05-08 09:02 44.41014 49.86956 36053 ft 435 kts 207°
2026-05-08 09:03 44.35594 49.83193 36054 ft 435 kts 207°
2026-05-08 09:03 44.30167 49.79432 36060 ft 435 kts 207°
2026-05-08 09:04 44.24737 49.75679 36054 ft 435 kts 207°
2026-05-08 09:04 44.19310 49.71921 36057 ft 435 kts 207°
2026-05-08 09:05 44.13879 49.68180 36062 ft 436 kts 207°
2026-05-08 09:05 44.08441 49.64446 36070 ft 436 kts 207°
2026-05-08 09:06 44.03004 49.60713 36067 ft 436 kts 207°
2026-05-08 09:06 43.97566 49.56988 36067 ft 436 kts 207°
2026-05-08 09:07 43.92218 49.53050 36064 ft 435 kts 216°
2026-05-08 09:07 43.89964 49.50357 36067 ft 434 kts 227°
2026-05-08 09:07 43.88104 49.47008 36063 ft 434 kts 239°
2026-05-08 09:08 43.86807 49.43293 36062 ft 435 kts 250°
2026-05-08 09:08 43.86057 49.39232 36061 ft 437 kts 259°
2026-05-08 09:08 43.85081 49.30922 36067 ft 438 kts 259°
2026-05-08 09:09 43.84080 49.22596 36073 ft 438 kts 259°
2026-05-08 09:09 43.83060 49.14272 36077 ft 439 kts 259°
2026-05-08 09:10 43.82042 49.05934 36078 ft 439 kts 259°
2026-05-08 09:10 43.81027 48.97592 36082 ft 440 kts 259°
2026-05-08 09:11 43.80002 48.89245 36085 ft 440 kts 259°
2026-05-08 09:11 43.78966 48.80894 36085 ft 441 kts 259°
2026-05-08 09:12 43.77921 48.72535 36091 ft 441 kts 259°
2026-05-08 09:12 43.76866 48.64164 36091 ft 442 kts 259°
2026-05-08 09:13 43.75808 48.55790 36093 ft 442 kts 259°
2026-05-08 09:13 43.74747 48.47406 36096 ft 443 kts 259°
2026-05-08 09:14 43.73673 48.39026 36101 ft 443 kts 258°
2026-05-08 09:14 43.72584 48.30642 36102 ft 443 kts 259°
2026-05-08 09:15 43.71494 48.22262 36096 ft 443 kts 259°
2026-05-08 09:15 43.70395 48.13872 36097 ft 444 kts 259°
2026-05-08 09:16 43.69288 48.05470 36098 ft 445 kts 259°
2026-05-08 09:16 43.68178 47.97052 36106 ft 446 kts 258°
2026-05-08 09:17 43.67061 47.88639 36111 ft 445 kts 259°
2026-05-08 09:17 43.65933 47.80230 36112 ft 446 kts 258°
2026-05-08 09:18 43.64805 47.71805 36117 ft 446 kts 258°
2026-05-08 09:18 43.63666 47.63382 36125 ft 446 kts 258°
2026-05-08 09:19 43.62512 47.54973 36133 ft 446 kts 258°
2026-05-08 09:19 43.61428 47.46554 36131 ft 445 kts 261°
2026-05-08 09:20 43.60716 47.38064 36129 ft 446 kts 263°
2026-05-08 09:20 43.60128 47.29548 36138 ft 446 kts 263°
2026-05-08 09:21 43.59469 47.21093 36135 ft 446 kts 262°